User: anonymous   Login
Location: Unspecified
(0.0000°N, 0.0000°E)
Time: 20:15:14
(UTC+00:00)
Language:

KUIPER-00038 - Orbit

View from above orbital plane
View from above orbital plane
View from above satellite
View from above satellite

Ground track
Ground track

The orbit is defined by the following mean orbital elements,

1 63750U          26145.37163586 +.00000000 +00000-0 +31607-3 0 00001
2 63750  51.9013 119.0159 0000683  50.1285 309.9737 14.79985714    09
Epoch (UTC): 25 May 2026 08:55:09
Eccentricity: 0.0000683
inclination: 51.9013°
perigee height: 629 km
apogee height: 630 km
right ascension of ascending node: 119.0159°
argument of perigee: 50.1285°
revolutions per day: 14.79985714
mean anomaly at epoch: 309.9737°

The dashed part of the orbit path shows where the satellite is in the earth's shadow,  

DLR